Regional Weather Roundup
Issued by NWS

Home | Current Version | Previous Version | Graphics & Text | Print | Product List | Glossary On
Versions: 1 2 3 4 5 6 7 8 9 10 11 12 13 14 15 16 17 18 19 20 21 22 23 24 25 26 27 28 29 30 31 32 33 34 35 36 37 38 39 40 41 42 43 44 45 46 47 48 49 50
000
ASUS43 KMKX 010400
RWRWI

WISCONSIN REGIONAL WEATHER ROUNDUP
NATIONAL WEATHER SERVICE MILWAUKEE/SULLIVAN WI
1100 PM CDT TUE SEP 30 2014

NOTE: "FAIR" INDICATES FEW OR NO CLOUDS BELOW 12,000 FEET WITH NO
SIGNIFICANT WEATHER AND/OR OBSTRUCTIONS TO VISIBILITY.

WIZ001-002-006>008-014>016-023>028-010500-
NORTHWEST WISCONSIN

CITY           SKY/WX    TMP DP  RH WIND       PRES   REMARKS
SUPERIOR ARPT  CLOUDY    46  44  92 E12       29.95F
ASHLAND        MOCLDY    39  38  96 SE3       29.98F FOG
HAYWARD        MOCLDY    49  43  80 SE7       29.95F
SIREN          CLOUDY    51  43  74 SE12      29.91F
CUMBERLAND     PTCLDY    46  41  81 SE8       29.95S
RICE LAKE      PTCLDY    47  42  82 SE13      29.97S
CHETEK         PTCLDY    47  43  87 SE8G18    29.97S
LADYSMITH      PTCLDY    46  42  86 E5        30.00S
EAU CLAIRE     NOT AVBL
MENOMONIE      MOCLDY    47  43  85 SE12      29.98R
NEW RICHMOND   CLOUDY    50  43  77 SE12G20   29.93F HAZE
OSCEOLA        CLOUDY    51  44  78 SE14G20   29.94S
$$

WIZ003>005-009-010-017-018-010500-
NORTH CENTRAL WISCONSIN

CITY           SKY/WX    TMP DP  RH WIND       PRES   REMARKS
MANITOWISH WTR CLEAR     44  44 100 S6        30.01R
ARBOR VITAE    CLEAR     46  43  88 S7        30.02R
WOODRUFF       CLEAR     46  43  88 S7        30.02R
RHINELANDER    CLOUDY    43  41  93 SE8       30.04R
EAGLE RIVER    CLEAR     44  43  95 SE6       30.02S
LAND O LAKES   CLEAR     45  43  93 S5        30.03S
PHILLIPS       CLOUDY    45  42  91 SE8       29.99S
TOMAHAWK       CLOUDY    43  41  92 SE6       30.04S
MEDFORD        CLOUDY    44  42  93 SE8       30.01S
MERRILL        CLOUDY    44  43  95 S8        30.04F
$$

WIZ029-030-035-036-043>047-010500-
CENTRAL WISCONSIN

CITY           SKY/WX    TMP DP  RH WIND       PRES   REMARKS
WAUSAU         CLOUDY    45  42  89 SE9       30.03F
MOSINEE        CLOUDY    43  43 100 SE8       30.04F
MARSHFIELD     CLOUDY    46  42  86 SE10G18   30.02F
STEVENS POINT  CLOUDY    44  41  91 SE8       30.06S
WAUPACA        CLOUDY    49  46  88 E7        30.07S
WAUTOMA        NOT AVBL
WISC RAPIDS    CLOUDY    47  43  86 SE7       30.06S
CAMP DOUGLAS   NOT AVBL
$$

WIZ011>013-019>022-031-037>040-048>050-010500-
NORTHEAST WISCONSIN

CITY           SKY/WX    TMP DP  RH WIND       PRES   REMARKS
ANTIGO         CLOUDY    43  42  97 S10       30.06R
SHAWANO        CLOUDY    49  45  83 SE5       30.08R
OCONTO         CLOUDY    48  46  92 SE5       30.07S
STURGEON BAY   NOT AVBL
GREEN BAY      CLOUDY    48  45  89 CALM      30.07S
MANITOWOC      NOT AVBL
APPLETON       CLOUDY    46  43  87 VRB6      30.07S
CLINTONVILLE   CLOUDY    46  43  87 SE6       30.07S
OSHKOSH        CLOUDY    48  45  89 E7        30.06F
$$

WIZ032>034-041-042-053>061-010500-
SOUTHWEST WISCONSIN

CITY           SKY/WX    TMP DP  RH WIND       PRES   REMARKS
LA CROSSE      CLOUDY    50  43  77 SE9       29.98F
SPARTA         NOT AVBL
VIROQUA        CLOUDY    45  45 100 E5        29.99F
BOSCOBEL       PTCLDY    47  43  86 CALM      30.01F
PRAIRIE DU CHI MOCLDY    48  42  80 E8        29.99F
PLATTEVILLE    PTCLDY    46  43  90 E9        30.00F
$$

WIZ056-057-062-063-064-067-068-010500-
SOUTH CENTRAL WISCONSIN

CITY           SKY/WX    TMP DP  RH WIND       PRES   REMARKS
REEDSBURG      PTCLDY    41  40  97 CALM      30.03S
BARABOO/DELLS  PTCLDY    42  40  93 E5        30.03S
LONE ROCK      NOT AVBL
MINERAL POINT  PTCLDY    46  43  87 E8        30.00F
MADISON        CLOUDY    49  44  83 E9        30.03F
MIDDLETON      CLOUDY    45  44  95 CALM      30.03F
WATERTOWN      CLOUDY    46  45  94 NE3       30.05S
MONROE         MOCLDY    45  43  93 E7        30.01F
JANESVILLE     CLOUDY    52  45  76 E7        30.02F
$$

WIZ051-052-058>065-066-070>072-010500-
SOUTHEAST WISCONSIN

CITY           SKY/WX    TMP DP  RH WIND       PRES   REMARKS
MILWAUKEE      MOCLDY    51  49  92 NW6       30.04F
WAUKESHA       DRIZZLE   45  45 100 CALM      30.06S
MILWAUKEE/TIMM DRIZZLE   46  45  93 NW3       30.06S
RACINE         NOT AVBL
BURLINGTON     CLOUDY    47  47  99 N3        30.04S FOG
KENOSHA        CLOUDY    52  50  93 N3        30.04F
FOND DU LAC    CLOUDY    48  44  86 E5        30.07S
SHEBOYGAN      NOT AVBL
WEST BEND      CLOUDY    46  45  93 CALM      30.05S FOG
JUNEAU         CLOUDY    47  43  88 NE3       30.07S
$$

LSZ147-162-010500-
LAKE SUPERIOR

STATION/POSITION TIME  TEMP    WIND        PRES    WAVE
                       AIR SEA DIR/SP/G            HT/PER
                 (UTC) (F)     (DEG/KT/KT) (MB)    (FT/S)
W MID LAKE BUOY  0250   47 50  110/ 14/ 16 1016.8F   3/ 5
DEVILS ISLAND    0300   49      90/ 12/ 14 1016.4F
SAXON HARBOR     0300   40     180/  5/  7 1015.6S
$$

LMZ867-665-643>646-010500-
LAKE MICHIGAN

STATION/POSITION TIME  TEMP    WIND        PRES    WAVE
                       AIR SEA DIR/SP/G            HT/PER
                 (UTC) (F)     (DEG/KT/KT) (MB)    (FT/S)
CHAMBERS ISLAND  0300   52     120/  3/  7 1018.3R
S GREEN BAY BUOY 0300   50                 1019.5R
N MID LAKE BUOY  0250   55 58  100/ 14/ 16 1017.8F   1/ 3
NORTHPORT PIER   0300   53     100/  3/  5 1017.9S
KEWAUNEE LAKESHO 0300   51     330/  1/  2 1017.2R
SHEBOYGAN LAKESH 0300   50 54   10/ 11/ 11 1018.4F
PORT WASHINGTON  0300   50     350/  4/  8 1018.3S
ATWATER BUOY     0300   52      10/  8/ 12 1018.4S
MILWAUKEE LAKESH 0300   51     350/  7/ 10   N/A
S MID LAKE BUOY  0250   56 61   60/  8/ 10 1017.4R   3/ 6
KENOSHA   LAKESH 0300   55     110/  6/ 13 1017.3R
$$

TC  - TEMPERATURE IN CELSIUS
VSB - VISIBILITY IN STATUTE MILES
WCI - WIND CHILL INDEX
HX  - HEAT INDEX



USA.gov is the U.S. government's official web portal to all federal, state and local government web resources and services.